Location: Madrid
(40.4167°N, 3.7036°W)
Time: 13:05:51
(UTC+00:00)

ISS - Pass Details

Date: 15 July 2024
Orbit: 410 x 424 km, 51.6° (Epoch: 14 July)

Event Time Altitude Azimuth Distance (km) Brightness Sun altitude
Rises 20:09:16 0° 265° (W) 2,334 0.9 -5.0°
Reaches altitude 10° 20:11:36 10° 279° (W) 1,474 0.3 -5.4°
Maximum altitude 20:14:22 24° 336° (NNW) 897 -1.2 -5.8°
Drops below altitude 10° 20:17:08 10° 33° (NNE) 1,479 -0.9 -6.2°
Sets 20:19:29 0° 48° (NE) 2,343 -0.1 -6.6°
